When you browse on this site, cookies collect data to enhance your experience and personalize the content and advertising you see.
Visit our Privacy Policy to learn more. By continuing to use the site, you agree to this use of cookies and data.
  • In Hungary
  • List of Countries
  • For 7 days
  • Water Temperature
  • Weather Map
  • News
  • Weather Widgets
  • user-avatar
    Login

    Hourly Weather Baraut

    Today, 20 February, Thursday

    Time Temperature Precipitation Wind Pressure Humidity
    00:00 +17°C° 0 mm 4 mps 740 mmHg 50%
    01:00 +15°C° 0 mm 4 mps 739 mmHg 51%
    02:00 +15°C° 0 mm 4 mps 739 mmHg 52%
    03:00 +14°C° 0 mm 4 mps 739 mmHg 55%
    04:00 +14°C° 0 mm 4 mps 739 mmHg 57%
    05:00 +14°C° 0 mm 3 mps 738 mmHg 57%
    06:00 +15°C° 0 mm 4 mps 739 mmHg 56%
    07:00 +16°C° 0 mm 5 mps 739 mmHg 55%
    08:00 +17°C° 0 mm 5 mps 740 mmHg 53%
    09:00 +21°C° 0 mm 6 mps 740 mmHg 47%
    10:00 +23°C° 0 mm 6 mps 740 mmHg 40%
    11:00 +27°C° 0 mm 7 mps 740 mmHg 33%
    12:00 +28°C° 0 mm 7 mps 740 mmHg 31%
    13:00 +29°C° 0 mm 7 mps 739 mmHg 28%
    14:00 +30°C° 0 mm 7 mps 738 mmHg 26%
    15:00 +28°C° 0 mm 6 mps 738 mmHg 30%
    16:00 +27°C° 0 mm 5 mps 737 mmHg 35%
    17:00 +26°C° 0 mm 4 mps 737 mmHg 39%
    18:00 +23°C° 0 mm 4 mps 737 mmHg 45%
    19:00 +22°C° 0 mm 4 mps 738 mmHg 51%
    20:00 +20°C° 0 mm 5 mps 738 mmHg 57%
    21:00 +20°C° 0.2 mm 4 mps 738 mmHg 60%
    22:00 +19°C° 0.2 mm 4 mps 738 mmHg 62%
    23:00 +18°C° 0.2 mm 4 mps 739 mmHg 64%

    Tomorrow, 21 February, Friday

    Time Temperature Precipitation Wind Pressure Humidity
    00:00 +17°C° 0.8 mm 4 mps 738 mmHg 72%
    01:00 +16°C° 0.8 mm 3 mps 738 mmHg 80%
    02:00 +15°C° 0.8 mm 2 mps 738 mmHg 87%
    03:00 +14°C° 1.5 mm 3 mps 738 mmHg 88%
    04:00 +14°C° 1.5 mm 4 mps 738 mmHg 88%
    05:00 +14°C° 1.5 mm 4 mps 738 mmHg 88%
    06:00 +14°C° 1 mm 5 mps 739 mmHg 87%
    07:00 +15°C° 1 mm 5 mps 740 mmHg 85%
    08:00 +16°C° 1 mm 6 mps 741 mmHg 83%
    09:00 +19°C° 0 mm 6 mps 741 mmHg 74%
    10:00 +20°C° 0 mm 6 mps 742 mmHg 65%
    11:00 +22°C° 0 mm 6 mps 742 mmHg 56%
    18:00 +19°C° 0 mm 5 mps 741 mmHg 63%
    19:00 +18°C° 0 mm 4 mps 742 mmHg 67%
    20:00 +17°C° 0 mm 4 mps 743 mmHg 70%
    21:00 +15°C° 0 mm 4 mps 743 mmHg 68%
    22:00 +16°C° 0 mm 3 mps 743 mmHg 67%
    23:00 +16°C° 0 mm 3 mps 743 mmHg 65%

    Day after tomorrow, 22 February, Saturday

    Time Temperature Precipitation Wind Pressure Humidity
    00:00 +16°C° 0 mm 3 mps 743 mmHg 68%
    01:00 +14°C° 0 mm 3 mps 743 mmHg 71%
    02:00 +14°C° 0 mm 3 mps 743 mmHg 75%
    03:00 +14°C° 0 mm 3 mps 742 mmHg 76%
    04:00 +15°C° 0 mm 2 mps 742 mmHg 78%
    05:00 +15°C° 0 mm 2 mps 742 mmHg 79%
    06:00 +16°C° 0 mm 2 mps 743 mmHg 76%
    07:00 +17°C° 0 mm 2 mps 743 mmHg 72%
    08:00 +18°C° 0 mm 2 mps 744 mmHg 69%
    09:00 +20°C° 0 mm 2 mps 744 mmHg 60%
    10:00 +23°C° 0 mm 2 mps 744 mmHg 52%
    11:00 +26°C° 0 mm 3 mps 744 mmHg 44%
    12:00 +27°C° 0 mm 3 mps 744 mmHg 42%
    13:00 +27°C° 0 mm 3 mps 743 mmHg 40%
    14:00 +28°C° 0 mm 3 mps 742 mmHg 39%
    15:00 +27°C° 0 mm 3 mps 742 mmHg 43%
    16:00 +26°C° 0 mm 2 mps 741 mmHg 47%
    17:00 +26°C° 0 mm 1 mps 741 mmHg 51%
    18:00 +24°C° 0 mm 1 mps 741 mmHg 55%
    19:00 +22°C° 0 mm 1 mps 742 mmHg 58%
    20:00 +21°C° 0 mm 1 mps 742 mmHg 62%
    21:00 +20°C° 0 mm 1 mps 742 mmHg 63%
    22:00 +20°C° 0 mm 1 mps 742 mmHg 65%
    23:00 +18°C° 0 mm 2 mps 742 mmHg 66%

    23 February, Sunday

    Time Temperature Precipitation Wind Pressure Humidity
    00:00 +18°C° 0 mm 2 mps 742 mmHg 67%
    01:00 +17°C° 0 mm 2 mps 741 mmHg 67%
    02:00 +17°C° 0 mm 2 mps 741 mmHg 68%
    03:00 +17°C° 0.1 mm 2 mps 741 mmHg 70%
    04:00 +16°C° 0.1 mm 2 mps 741 mmHg 72%
    05:00 +16°C° 0.1 mm 2 mps 740 mmHg 74%
    06:00 +17°C° 0 mm 2 mps 741 mmHg 71%
    07:00 +19°C° 0 mm 1 mps 741 mmHg 69%
    08:00 +19°C° 0 mm 1 mps 742 mmHg 67%
    09:00 +22°C° 0 mm 1 mps 742 mmHg 59%
    10:00 +24°C° 0 mm 1 mps 742 mmHg 51%
    11:00 +27°C° 0 mm 2 mps 743 mmHg 43%
    12:00 +27°C° 0 mm 2 mps 742 mmHg 40%
    13:00 +28°C° 0 mm 2 mps 741 mmHg 38%
    14:00 +29°C° 0 mm 2 mps 740 mmHg 35%
    15:00 +28°C° 0 mm 2 mps 740 mmHg 38%
    16:00 +27°C° 0 mm 2 mps 740 mmHg 42%
    17:00 +26°C° 0 mm 1 mps 739 mmHg 46%
    18:00 +24°C° 0.3 mm 2 mps 739 mmHg 55%
    19:00 +21°C° 0.3 mm 2 mps 740 mmHg 63%
    20:00 +19°C° 0.3 mm 3 mps 740 mmHg 72%
    21:00 +19°C° 0.3 mm 3 mps 740 mmHg 76%
    22:00 +18°C° 0.3 mm 3 mps 740 mmHg 80%
    23:00 +17°C° 0.3 mm 2 mps 740 mmHg 84%

    24 February, Monday

    Time Temperature Precipitation Wind Pressure Humidity
    00:00 +17°C° 0 mm 2 mps 740 mmHg 83%
    01:00 +17°C° 0 mm 2 mps 739 mmHg 82%
    02:00 +16°C° 0 mm 2 mps 739 mmHg 81%
    03:00 +16°C° 0 mm 2 mps 739 mmHg 82%
    04:00 +15°C° 0 mm 1 mps 738 mmHg 82%
    05:00 +15°C° 0 mm 1 mps 738 mmHg 83%
    06:00 +16°C° 0 mm 1 mps 739 mmHg 79%
    07:00 +18°C° 0 mm 1 mps 739 mmHg 76%
    08:00 +19°C° 0 mm 1 mps 740 mmHg 73%
    09:00 +20°C° 0 mm 0 mps 740 mmHg 64%
    10:00 +22°C° 0 mm 0 mps 740 mmHg 55%
    11:00 +25°C° 0 mm 0 mps 740 mmHg 46%
    12:00 +25°C° 0 mm 0 mps 740 mmHg 42%
    13:00 +28°C° 0 mm 1 mps 739 mmHg 38%
    14:00 +29°C° 0 mm 2 mps 738 mmHg 35%
    15:00 +28°C° 0 mm 1 mps 738 mmHg 37%
    16:00 +27°C° 0 mm 1 mps 737 mmHg 40%
    17:00 +26°C° 0 mm 1 mps 737 mmHg 43%
    18:00 +25°C° 0 mm 2 mps 737 mmHg 46%
    19:00 +23°C° 0 mm 2 mps 738 mmHg 50%
    20:00 +21°C° 0 mm 2 mps 738 mmHg 53%
    21:00 +20°C° 0 mm 2 mps 738 mmHg 56%
    22:00 +19°C° 0 mm 2 mps 738 mmHg 59%
    23:00 +18°C° 0 mm 2 mps 738 mmHg 63%

    25 February, Tuesday

    Time Temperature Precipitation Wind Pressure Humidity
    00:00 +19°C° 0 mm 1 mps 738 mmHg 64%
    01:00 +19°C° 0 mm 1 mps 738 mmHg 65%
    02:00 +16°C° 0 mm 0 mps 738 mmHg 67%
    03:00 +16°C° 0 mm 0 mps 738 mmHg 68%
    04:00 +16°C° 0 mm 1 mps 738 mmHg 70%
    05:00 +16°C° 0 mm 1 mps 738 mmHg 71%
    06:00 +18°C° 0 mm 1 mps 738 mmHg 73%
    07:00 +18°C° 0 mm 2 mps 739 mmHg 74%
    08:00 +18°C° 0 mm 2 mps 740 mmHg 75%
    09:00 +21°C° 0 mm 2 mps 740 mmHg 66%
    10:00 +24°C° 0 mm 2 mps 740 mmHg 58%
    11:00 +26°C° 0 mm 1 mps 740 mmHg 49%
    12:00 +27°C° 0 mm 1 mps 740 mmHg 44%
    13:00 +28°C° 0 mm 1 mps 739 mmHg 39%
    14:00 +29°C° 0 mm 1 mps 738 mmHg 34%
    15:00 +28°C° 0 mm 1 mps 738 mmHg 37%
    16:00 +28°C° 0 mm 1 mps 738 mmHg 39%
    17:00 +27°C° 0 mm 2 mps 737 mmHg 42%
    18:00 +25°C° 0 mm 2 mps 738 mmHg 45%
    19:00 +23°C° 0 mm 2 mps 738 mmHg 48%
    20:00 +20°C° 0 mm 2 mps 739 mmHg 51%
    21:00 +20°C° 0 mm 1 mps 739 mmHg 53%
    22:00 +20°C° 0 mm 1 mps 739 mmHg 55%
    23:00 +19°C° 0 mm 1 mps 739 mmHg 57%
    Show more